I1SXT-5 Weather Reports


time (UTC)temp
C
wind
direction
speed
KPH
gust
KPH
rain 1hr
cm
rain 24hr
cm
rain mn
cm
humidity
%
barometer
mb
20260507224039 -17 0.0 0.0 0.00 0.00 0.00 63 1014.4
20260507223538 -17 0.0 0.0 0.00 0.00 0.00 62 1014.4
20260507223037 -17 0.0 0.0 0.00 0.00 0.00 62 1014.3
20260507222535 -17 0.0 0.0 0.00 0.00 0.00 63 1014.3
20260507222034 -17 0.0 0.0 0.00 0.00 0.00 62 1014.3
20260507221533 -17 0.0 0.0 0.00 0.00 0.00 63 1014.2
20260507221032 -17 0.0 0.0 0.00 0.00 0.00 64 1014.1
20260507220530 -17 0.0 0.0 0.00 0.00 0.00 62 1014.1
20260507220029 -17 0.0 0.0 0.00 0.00 0.00 62 1014.1
20260507215528 -17 0.0 0.0 0.00 0.00 0.00 64 1014.2
20260507215027 -17 0.0 0.0 0.00 0.00 0.00 64 1014.2
20260507214526 -17 0.0 0.0 0.00 0.00 0.00 63 1014.1
20260507214024 -17 0.0 0.0 0.00 0.00 0.00 62 1014.0
20260507213523 -17 0.0 0.0 0.00 0.00 0.00 63 1014.1
20260507213022 -17 0.0 0.0 0.00 0.00 0.00 63 1014.1
20260507212521 -17 0.0 0.0 0.00 0.00 0.00 65 1014.1
20260507212019 -17 0.0 0.0 0.00 0.00 0.00 66 1014.1
20260507211518 -17 0.0 0.0 0.00 0.00 0.00 66 1014.1
20260507211017 -17 0.0 0.0 0.00 0.00 0.00 65 1014.0
20260507210516 -17 0.0 0.0 0.00 0.00 0.00 64 1014.0
20260507210014 -17 0.0 0.0 0.00 0.00 0.00 66 1014.0
20260507205513 -17 0.0 0.0 0.00 0.00 0.00 64 1014.0
20260507205012 -17 0.0 0.0 0.00 0.00 0.00 63 1014.0
20260507204511 -17 0.0 0.0 0.00 0.00 0.00 63 1014.0
20260507204009 -17 0.0 0.0 0.00 0.00 0.00 64 1014.0
20260507203508 -17 0.0 0.0 0.00 0.00 0.00 62 1014.0
20260507203007 -17 0.0 0.0 0.00 0.00 0.00 61 1014.2
20260507202506 -17 0.0 0.0 0.00 0.00 0.00 61 1014.1
20260507202005 -17 0.0 0.0 0.00 0.00 0.00 61 1013.9
20260507201503 -17 0.0 0.0 0.00 0.00 0.00 62 1013.9
20260507201002 -17 0.0 0.0 0.00 0.00 0.00 63 1013.8
20260507200501 -17 0.0 0.0 0.00 0.00 0.00 62 1013.7
20260507200000 -17 0.0 0.0 0.00 0.00 0.00 61 1013.6
20260507195458 -17 0.0 0.0 0.00 0.00 0.00 62 1013.6
20260507194957 -17 0.0 0.0 0.00 0.00 0.00 61 1013.6
20260507194456 -17 0.0 0.0 0.00 0.00 0.00 62 1013.5
20260507193955 -17 0.0 0.0 0.00 0.00 0.00 63 1013.6
20260507193453 -17 0.0 0.0 0.00 0.00 0.00 62 1013.5
20260507192952 -17 0.0 0.0 0.00 0.00 0.00 62 1013.5
20260507192451 -17 0.0 0.0 0.00 0.00 0.00 59 1013.4
20260507191950 -17 0.0 0.0 0.00 0.00 0.00 59 1013.4
20260507191449 -17 0.0 0.0 0.00 0.00 0.00 59 1013.4
20260507190947 -17 0.0 0.0 0.00 0.00 0.00 60 1013.4
20260507190446 -17 0.0 0.0 0.00 0.00 0.00 58 1013.3
20260507185945 -17 0.0 0.0 0.00 0.00 0.00 57 1013.3
20260507185444 -17 0.0 0.0 0.00 0.00 0.00 58 1013.3
20260507184942 -17 0.0 0.0 0.00 0.00 0.00 58 1013.2
20260507184441 -17 0.0 0.0 0.00 0.00 0.00 57 1013.2
20260507183940 -17 0.0 0.0 0.00 0.00 0.00 58 1013.2
20260507183439 -17 0.0 0.0 0.00 0.00 0.00 58 1013.3
20260507182937 -17 0.0 0.0 0.00 0.00 0.00 58 1013.5
20260507182436 -17 0.0 0.0 0.00 0.00 0.00 57 1013.5
20260507181935 -17 0.0 0.0 0.00 0.00 0.00 57 1013.3
20260507181434 -17 0.0 0.0 0.00 0.00 0.00 55 1013.2
20260507180933 -17 0.0 0.0 0.00 0.00 0.00 54 1013.3
20260507180431 -17 0.0 0.0 0.00 0.00 0.00 54 1013.4
20260507175930 -17 0.0 0.0 0.00 0.00 0.00 52 1013.4
20260507175429 -17 0.0 0.0 0.00 0.00 0.00 53 1013.3
20260507174928 -17 0.0 0.0 0.00 0.00 0.00 52 1013.3
20260507174426 -17 0.0 0.0 0.00 0.00 0.00 50 1013.4
20260507173925 -17 0.0 0.0 0.00 0.00 0.00 48 1013.4
20260507173424 -17 0.0 0.0 0.00 0.00 0.00 44 1013.3
20260507172929 -17 0.0 0.0 0.00 0.00 0.00 44 1013.3
20260507172428 -17 0.0 0.0 0.00 0.00 0.00 40 1013.3
20260507171926 -17 0.0 0.0 0.00 0.00 0.00 40 1013.2
20260507171425 -17 0.0 0.0 0.00 0.00 0.00 40 1013.2
20260507170924 -17 0.0 0.0 0.00 0.00 0.00 41 1013.1
20260507170422 -17 0.0 0.0 0.00 0.00 0.00 41 1013.2
20260507165921 -17 0.0 0.0 0.00 0.00 0.00 41 1013.2
20260507165420 -17 0.0 0.0 0.00 0.00 0.00 42 1013.1
20260507164919 -17 0.0 0.0 0.00 0.00 0.00 42 1013.0
20260507164417 -17 0.0 0.0 0.00 0.00 0.00 43 1013.0
20260507163916 -17 0.0 0.0 0.00 0.00 0.00 44 1013.1
20260507163415 -17 0.0 0.0 0.00 0.00 0.00 42 1013.0
20260507162914 -17 0.0 0.0 0.00 0.00 0.00 44 1013.1
20260507162413 -17 0.0 0.0 0.00 0.00 0.00 45 1013.2
20260507161911 -17 0.0 0.0 0.00 0.00 0.00 45 1013.2
20260507160909 -17 0.0 0.0 0.00 0.00 0.00 46 1013.2
20260507160408 -17 0.0 0.0 0.00 0.00 0.00 45 1013.2
20260507155906 -17 0.0 0.0 0.00 0.00 0.00 44 1013.2
20260507154904 -17 0.0 0.0 0.00 0.00 0.00 50 1013.3
20260507154403 -17 0.0 0.0 0.00 0.00 0.00 50 1013.4
20260507153400 -17 0.0 0.0 0.00 0.00 0.00 48 1013.5
20260507152900 -17 0.0 0.0 0.00 0.00 0.00 49 1013.4
20260507152358 -17 0.0 0.0 0.00 0.00 0.00 48 1013.4
20260507151857 -17 0.0 0.0 0.00 0.00 0.00 47 1013.4
20260507151355 -17 0.0 0.0 0.00 0.00 0.00 47 1013.4
20260507150854 -17 0.0 0.0 0.00 0.00 0.00 47 1013.4
20260507145852 -17 0.0 0.0 0.00 0.00 0.00 48 1013.3
20260507145351 -17 0.0 0.0 0.00 0.00 0.00 50 1013.3
20260507144849 -17 0.0 0.0 0.00 0.00 0.00 48 1013.4
20260507144348 -17 0.0 0.0 0.00 0.00 0.00 47 1013.5
20260507143847 -17 0.0 0.0 0.00 0.00 0.00 48 1013.5
20260507143345 -17 0.0 0.0 0.00 0.00 0.00 48 1013.5
20260507142844 -17 0.0 0.0 0.00 0.00 0.00 48 1013.6
20260507142343 -17 0.0 0.0 0.00 0.00 0.00 47 1013.6
20260507141842 -17 0.0 0.0 0.00 0.00 0.00 47 1013.5
20260507141341 -17 0.0 0.0 0.00 0.00 0.00 48 1013.6
20260507140840 -17 0.0 0.0 0.00 0.00 0.00 48 1013.7
20260507140338 -17 0.0 0.0 0.00 0.00 0.00 49 1013.8
20260507135837 -17 0.0 0.0 0.00 0.00 0.00 48 1013.7
20260507135336 -17 0.0 0.0 0.00 0.00 0.00 48 1013.7
20260507134834 -17 0.0 0.0 0.00 0.00 0.00 50 1013.8
20260507134333 -17 0.0 0.0 0.00 0.00 0.00 48 1013.7
20260507133832 -17 0.0 0.0 0.00 0.00 0.00 49 1013.7
20260507133331 -17 0.0 0.0 0.00 0.00 0.00 47 1013.8
20260507132829 -17 0.0 0.0 0.00 0.00 0.00 49 1013.7
20260507131827 -17 0.0 0.0 0.00 0.00 0.00 49 1013.8
20260507131326 -17 0.0 0.0 0.00 0.00 0.00 51 1013.8
20260507130323 -17 0.0 0.0 0.00 0.00 0.00 49 1013.8
20260507125822 -17 0.0 0.0 0.00 0.00 0.00 49 1013.7
20260507125321 -17 0.0 0.0 0.00 0.00 0.00 50 1013.7
20260507124820 -17 0.0 0.0 0.00 0.00 0.00 49 1013.8
20260507124318 -17 0.0 0.0 0.00 0.00 0.00 49 1013.7
20260507123817 -17 0.0 0.0 0.00 0.00 0.00 48 1013.8
20260507123316 -17 0.0 0.0 0.00 0.00 0.00 49 1013.7
20260507122815 -17 0.0 0.0 0.00 0.00 0.00 48 1013.6
20260507122314 -17 0.0 0.0 0.00 0.00 0.00 47 1013.6
20260507121812 -17 0.0 0.0 0.00 0.00 0.00 46 1013.5
20260507121311 -17 0.0 0.0 0.00 0.00 0.00 49 1013.5
20260507120810 -17 0.0 0.0 0.00 0.00 0.00 47 1013.6
20260507120309 -17 0.0 0.0 0.00 0.00 0.00 48 1013.6
20260507115807 -17 0.0 0.0 0.00 0.00 0.00 48 1013.6
20260507114805 -17 0.0 0.0 0.00 0.00 0.00 50 1013.7
20260507114304 -17 0.0 0.0 0.00 0.00 0.00 51 1013.9
20260507113802 -17 0.0 0.0 0.00 0.00 0.00 49 1013.9
20260507112259 -17 0.0 0.0 0.00 0.00 0.00 49 1013.9
20260507111757 -17 0.0 0.0 0.00 0.00 0.00 47 1014.0
20260507110755 -17 0.0 0.0 0.00 0.00 0.00 47 1013.8
20260507110254 -17 0.0 0.0 0.00 0.00 0.00 46 1013.8
20260507105753 -17 0.0 0.0 0.00 0.00 0.00 50 1013.8
20260507105252 -17 0.0 0.0 0.00 0.00 0.00 48 1013.7
20260507104249 -17 0.0 0.0 0.00 0.00 0.00 50 1013.8
20260507103748 -17 0.0 0.0 0.00 0.00 0.00 49 1013.8
20260507103246 -17 0.0 0.0 0.00 0.00 0.00 49 1013.8
20260507102745 -17 0.0 0.0 0.00 0.00 0.00 51 1013.9
20260507101242 -17 0.0 0.0 0.00 0.00 0.00 50 1013.9
20260507100740 -17 0.0 0.0 0.00 0.00 0.00 49 1013.8
20260507100239 -17 0.0 0.0 0.00 0.00 0.00 48 1013.9
20260507095738 -17 0.0 0.0 0.00 0.00 0.00 48 1014.0
20260507095237 -17 0.0 0.0 0.00 0.00 0.00 47 1013.8
20260507094736 -17 0.0 0.0 0.00 0.00 0.00 47 1013.8
20260507094234 -17 0.0 0.0 0.00 0.00 0.00 48 1013.8
20260507093733 -17 0.0 0.0 0.00 0.00 0.00 47 1013.9
20260507093232 -17 0.0 0.0 0.00 0.00 0.00 47 1013.9
20260507092730 -17 0.0 0.0 0.00 0.00 0.00 46 1013.9
20260507092229 -17 0.0 0.0 0.00 0.00 0.00 47 1013.9
20260507091728 -17 0.0 0.0 0.00 0.00 0.00 46 1013.9
20260507091227 -17 0.0 0.0 0.00 0.00 0.00 46 1013.9
20260507090725 -17 0.0 0.0 0.00 0.00 0.00 46 1013.8
20260507090224 -17 0.0 0.0 0.00 0.00 0.00 48 1013.8
20260507085723 -17 0.0 0.0 0.00 0.00 0.00 48 1013.8
20260507085222 -17 0.0 0.0 0.00 0.00 0.00 47 1013.8
20260507084219 -17 0.0 0.0 0.00 0.00 0.00 48 1013.6
20260507083718 -17 0.0 0.0 0.00 0.00 0.00 46 1013.5
20260507083217 -17 0.0 0.0 0.00 0.00 0.00 46 1013.5
20260507082716 -17 0.0 0.0 0.00 0.00 0.00 49 1013.5
20260507082215 -17 0.0 0.0 0.00 0.00 0.00 49 1013.4
20260507081713 -17 0.0 0.0 0.00 0.00 0.00 49 1013.4
20260507081212 -17 0.0 0.0 0.00 0.00 0.00 49 1013.4
20260507080711 -17 0.0 0.0 0.00 0.00 0.00 48 1013.4
20260507080210 -17 0.0 0.0 0.00 0.00 0.00 49 1013.4
20260507075709 -17 0.0 0.0 0.00 0.00 0.00 49 1013.3
20260507075207 -17 0.0 0.0 0.00 0.00 0.00 49 1013.3
20260507074706 -17 0.0 0.0 0.00 0.00 0.00 50 1013.3
20260507074205 -17 0.0 0.0 0.00 0.00 0.00 51 1013.4
20260507073704 -17 0.0 0.0 0.00 0.00 0.00 50 1013.3
20260507073202 -17 0.0 0.0 0.00 0.00 0.00 49 1013.3
20260507072701 -17 0.0 0.0 0.00 0.00 0.00 51 1013.2
20260507072200 -17 0.0 0.0 0.00 0.00 0.00 51 1013.2
20260507071658 -17 0.0 0.0 0.00 0.00 0.00 51 1013.2
20260507071157 -17 0.0 0.0 0.00 0.00 0.00 51 1013.2
20260507070656 -17 0.0 0.0 0.00 0.00 0.00 52 1013.2
20260507070155 -17 0.0 0.0 0.00 0.00 0.00 50 1013.2
20260507065654 -17 0.0 0.0 0.00 0.00 0.00 50 1013.2
20260507065152 -17 0.0 0.0 0.00 0.00 0.00 51 1013.1
20260507064651 -17 0.0 0.0 0.00 0.00 0.00 51 1013.1
20260507064150 -17 0.0 0.0 0.00 0.00 0.00 52 1013.1
20260507063649 -17 0.0 0.0 0.00 0.00 0.00 54 1013.0
20260507063148 -17 0.0 0.0 0.00 0.00 0.00 55 1013.0
20260507062646 -17 0.0 0.0 0.00 0.00 0.00 56 1013.0
20260507061644 -17 0.0 0.0 0.00 0.00 0.00 55 1012.9
20260507061143 -17 0.0 0.0 0.00 0.00 0.00 55 1012.9
20260507060641 -17 0.0 0.0 0.00 0.00 0.00 50 1012.8
20260507060140 -17 0.0 0.0 0.00 0.00 0.00 50 1012.8
20260507055639 -17 0.0 0.0 0.00 0.00 0.00 45 1012.8
20260507055137 -17 0.0 0.0 0.00 0.00 0.00 48 1012.9
20260507054636 -17 0.0 0.0 0.00 0.00 0.00 53 1012.9
20260507054135 -17 0.0 0.0 0.00 0.00 0.00 54 1012.8
20260507053634 -17 0.0 0.0 0.00 0.00 0.00 53 1012.7
20260507053133 -17 0.0 0.0 0.00 0.00 0.00 61 1012.7
20260507052631 -17 0.0 0.0 0.00 0.00 0.00 62 1012.6
20260507052130 -17 0.0 0.0 0.00 0.00 0.00 63 1012.6
20260507051629 -17 0.0 0.0 0.00 0.00 0.00 62 1012.6
20260507050627 -17 0.0 0.0 0.00 0.00 0.00 61 1012.6
20260507050125 -17 0.0 0.0 0.00 0.00 0.00 62 1012.4
20260507045624 -17 0.0 0.0 0.00 0.00 0.00 62 1012.5
20260507045123 -17 0.0 0.0 0.00 0.00 0.00 63 1012.4
20260507044621 -17 0.0 0.0 0.00 0.00 0.00 64 1012.4
20260507044120 -17 0.0 0.0 0.00 0.00 0.00 66 1012.3
20260507043619 -17 0.0 0.0 0.00 0.00 0.00 66 1012.3
20260507043118 -17 0.0 0.0 0.00 0.00 0.00 65 1012.3
20260507042617 -17 0.0 0.0 0.00 0.00 0.00 64 1012.3
20260507042115 -17 0.0 0.0 0.00 0.00 0.00 65 1012.3
20260507041113 -17 0.0 0.0 0.00 0.00 0.00 67 1012.3
20260507040612 -17 0.0 0.0 0.00 0.00 0.00 66 1012.2
20260507040110 -17 0.0 0.0 0.00 0.00 0.00 66 1012.1
20260507035609 -17 0.0 0.0 0.00 0.00 0.00 65 1012.1
20260507035108 -17 0.0 0.0 0.00 0.00 0.00 65 1012.2
20260507034607 -17 0.0 0.0 0.00 0.00 0.00 65 1012.1
20260507034106 -17 0.0 0.0 0.00 0.00 0.00 65 1012.2
20260507033604 -17 0.0 0.0 0.00 0.00 0.00 66 1012.1
20260507033103 -17 0.0 0.0 0.00 0.00 0.00 67 1012.2
20260507032602 -17 0.0 0.0 0.00 0.00 0.00 67 1012.1
20260507032101 -17 0.0 0.0 0.00 0.00 0.00 64 1012.1
20260507031559 -17 0.0 0.0 0.00 0.00 0.00 65 1012.1
20260507031058 -17 0.0 0.0 0.00 0.00 0.00 65 1012.1
20260507030557 -17 0.0 0.0 0.00 0.00 0.00 66 1012.1
20260507030056 -17 0.0 0.0 0.00 0.00 0.00 66 1012.1
20260507025554 -17 0.0 0.0 0.00 0.00 0.00 67 1012.1
20260507025053 -17 0.0 0.0 0.00 0.00 0.00 65 1012.1
20260507024051 -17 0.0 0.0 0.00 0.00 0.00 66 1012.1
20260507023550 -17 0.0 0.0 0.00 0.00 0.00 67 1012.2
20260507023048 -17 0.0 0.0 0.00 0.00 0.00 66 1012.1
20260507022046 -17 0.0 0.0 0.00 0.00 0.00 68 1012.1
20260507021043 -17 0.0 0.0 0.00 0.00 0.00 67 1012.1
20260507020542 -17 0.0 0.0 0.00 0.00 0.00 65 1012.1
20260507015039 -17 0.0 0.0 0.00 0.00 0.00 64 1012.2
20260507014537 -17 0.0 0.0 0.00 0.00 0.00 64 1012.1
20260507014036 -17 0.0 0.0 0.00 0.00 0.00 64 1012.1
20260507013535 -17 0.0 0.0 0.00 0.00 0.00 65 1012.1
20260507013034 -17 0.0 0.0 0.00 0.00 0.00 66 1012.1
20260507012532 -17 0.0 0.0 0.00 0.00 0.00 66 1012.1
20260507012032 -17 0.0 0.0 0.00 0.00 0.00 64 1012.1
20260507011530 -17 0.0 0.0 0.00 0.00 0.00 65 1012.1
20260507011029 -17 0.0 0.0 0.00 0.00 0.00 65 1012.1
20260507010527 -17 0.0 0.0 0.00 0.00 0.00 64 1012.1
20260507010026 -17 0.0 0.0 0.00 0.00 0.00 64 1012.2
20260507005525 -17 0.0 0.0 0.00 0.00 0.00 64 1012.3
20260507005024 -17 0.0 0.0 0.00 0.00 0.00 65 1012.3
20260507004523 -17 0.0 0.0 0.00 0.00 0.00 65 1012.3
20260507004021 -17 0.0 0.0 0.00 0.00 0.00 64 1012.3
20260507003520 -17 0.0 0.0 0.00 0.00 0.00 64 1012.2
20260507003019 -17 0.0 0.0 0.00 0.00 0.00 64 1012.2
20260507002517 -17 0.0 0.0 0.00 0.00 0.00 64 1012.2
20260507002016 -17 0.0 0.0 0.00 0.00 0.00 64 1012.2
20260507001515 -17 0.0 0.0 0.00 0.00 0.00 64 1012.2
20260507001014 -17 0.0 0.0 0.00 0.00 0.00 63 1012.2
20260507000513 -17 0.0 0.0 0.00 0.00 0.00 63 1012.2
20260507000011 -17 0.0 0.0 0.00 0.00 0.00 64 1012.2
20260506235510 -17 0.0 0.0 0.00 0.00 0.00 63 1012.3
20260506235009 -17 0.0 0.0 0.00 0.00 0.00 63 1012.3
20260506234508 -17 0.0 0.0 0.00 0.00 0.00 63 1012.3
20260506234006 -17 0.0 0.0 0.00 0.00 0.00 63 1012.4
20260506233505 -17 0.0 0.0 0.00 0.00 0.00 64 1012.4
20260506233004 -17 0.0 0.0 0.00 0.00 0.00 64 1012.4
20260506232503 -17 0.0 0.0 0.00 0.00 0.00 64 1012.4
20260506232002 -17 0.0 0.0 0.00 0.00 0.00 65 1012.4
20260506231500 -17 0.0 0.0 0.00 0.00 0.00 67 1012.4
20260506230959 -17 0.0 0.0 0.00 0.00 0.00 65 1012.4
20260506230458 -17 0.0 0.0 0.00 0.00 0.00 63 1012.4
20260506225957 -17 0.0 0.0 0.00 0.00 0.00 63 1012.4
20260506225455 -17 0.0 0.0 0.00 0.00 0.00 63 1012.4
20260506224954 -17 0.0 0.0 0.00 0.00 0.00 62 1012.3
20260506224453 -17 0.0 0.0 0.00 0.00 0.00 63 1012.4